Location: Condren
(49.6294°N, 3.2811°E)
Time: 02:46:20
(UTC+00:00)

Daily predictions for brighter satellites

Satellite Brightness Start Highest point End
(mag) Time Altitude Azimuth Time Altitude Azimuth Time Altitude Azimuth
Cosmos 2297 Rocket 3.1 00:03:42 10° NNW 00:09:09 46° NE 00:14:35 10° SE
Cosmos 1782 2.8 00:07:01 10° N 00:10:39 61° ENE 00:11:51 38° SE
Cosmos 1726 Rocket 4.5 00:09:00 10° N 00:13:17 44° ENE 00:15:53 22° SE
Cosmos 2112 Rocket 4.3 00:09:31 10° NNW 00:14:45 65° ENE 00:18:23 20° SE
SL-08 ROCKET BODY 4.4 00:11:57 29° SSW 00:15:16 81° W 00:21:15 10° N
BREEZE-M DEB (TANK) 3.8 00:12:00 10° W 00:16:11 87° S 00:32:51 10° E
Cosmos 1818 4.3 00:12:32 10° NW 00:17:28 36° WSW 00:19:09 29° SSW
Cosmos 2058 2.8 00:18:00 40° SSE 00:19:16 71° E 00:23:13 10° NNE
Cosmos 44 2.9 00:19:22 34° SW 00:21:13 86° SE 00:25:39 10° NE
Cosmos 2228 4.3 00:21:04 10° NNW 00:24:35 26° W 00:25:54 22° WSW
Cosmos 1680 Rocket 3.4 00:24:57 10° NNW 00:30:14 83° WSW 00:33:13 27° SSE
RESURS DK-1 2.9 00:28:06 10° NNW 00:32:02 53° NE 00:34:57 17° SE
Cosmos 1697 Rocket 4.3 00:32:50 15° SE 00:35:50 23° ESE 00:40:12 10° NE
H-2A R/B 2.5 00:34:14 30° SE 00:35:54 63° ENE 00:39:40 10° N
Cosmos 1656 3.9 00:33:45 29° S 00:36:33 59° ESE 00:42:01 10° NE
Cosmos 923 Rocket 4.2 00:32:33 10° NNW 00:37:37 55° WSW 00:39:56 30° S
SeaSat 1 3.5 00:33:23 10° ESE 00:38:01 44° NE 00:42:40 10° NNW
Cosmos 2227 Rocket 3.5 00:35:16 10° NNW 00:40:36 39° NE 00:45:54 10° ESE
Cosmos 1400 Rocket 3.6 00:39:02 10° NNW 00:42:33 34° W 00:43:29 29° SW
Cosmos 1356 Rocket 4.0 00:41:15 10° N 00:45:07 50° ENE 00:47:29 22° SE
BlueWalker 3 2.8 00:41:54 10° WNW 00:45:28 47° N 00:49:02 10° E
ATLAS 2AS CENTAUR R/B 4.4 00:39:36 10° NW 00:45:49 35° NNE 00:51:54 10° E
Cosmos 1602 3.4 00:46:12 43° SSE 00:47:01 62° E 00:50:13 10° NNE
Cosmos-2242 4.2 00:45:59 10° N 00:49:54 37° ENE 00:53:05 14° SE
Cosmos 1937 Rocket 3.7 00:47:15 25° SW 00:50:11 63° WNW 00:55:18 10° NNE
ISS -3.3 00:50:09 10° WNW 00:53:29 63° N 00:56:50 10° E
H-2A R/B 4.3 00:52:32 10° NE 00:55:11 16° E 00:57:52 10° SE
Cosmos 2315 Rocket 4.1 00:50:58 10° NNW 00:57:17 67° W 01:01:14 24° S
Cosmos 1441 Rocket 3.8 00:58:03 28° SSE 00:59:26 42° E 01:02:47 10° NNE
Landsat 4 2.8 01:03:33 53° S 01:04:05 78° WSW 01:06:56 10° NNW
Cosmos 1933 3.2 01:01:31 10° NNW 01:05:23 72° W 01:07:02 33° S
DNEPR-1 R/B 4.4 01:07:38 10° WNW 01:11:20 30° WSW 01:12:13 28° SW
Meteor 2-3 Rocket 3.8 01:10:11 23° S 01:13:56 79° E 01:19:46 10° NNE
CZ-2C R/B 3.0 01:11:02 25° SSW 01:14:04 51° W 01:19:31 10° NNW
Cosmos 1048 Rocket 4.0 01:16:40 10° NNW 01:22:03 86° WSW 01:26:52 13° SSE
Cosmos 2058 Rocket 3.0 01:18:21 10° NNW 01:22:46 76° W 01:25:27 23° S
Cosmos 1315 Rocket 2.6 01:19:13 10° NNW 01:23:02 81° W 01:25:06 26° S
Cosmos 1655 Rocket 4.3 01:20:19 22° SSW 01:24:33 61° WNW 01:30:54 10° N
IDEFIX/ARIANE 42P 2.8 01:23:25 10° NNE 01:28:37 66° ESE 01:32:15 20° S
Lacrosse 5 rocket 3.3 01:31:12 10° NW 01:34:45 30° NNE 01:38:16 10° ENE
CZ-2C R/B 3.6 01:31:28 10° N 01:36:05 43° WNW 01:39:09 19° SW
SL-08 R/B 4.5 01:33:23 18° S 01:38:00 83° E 01:44:09 10° N
Cosmos 2219 4.3 01:33:39 10° NNW 01:39:09 47° NE 01:44:36 10° SE
Meteor 1-26 Rocket 4.1 01:34:36 10° NNW 01:40:02 81° W 01:44:35 15° S
Cosmos 2360 4.3 01:36:32 20° SW 01:40:34 72° WNW 01:46:18 10° NNE
CZ-4C R/B 3.4 01:37:47 10° W 01:42:11 35° NNW 01:47:43 10° NE
ADEOS II 3.7 01:40:07 10° NE 01:44:37 28° E 01:49:05 10° SSE
Cosmos 1867 4.2 01:40:43 13° WSW 01:45:25 50° NW 01:50:46 10° NNE
Cosmos 2263 Rocket 2.8 01:40:54 10° NNW 01:46:31 60° ENE 01:52:04 10° SE
SL-16 R/B 4.4 01:41:52 10° ESE 01:47:16 32° ENE 01:52:42 10° N
Gbstr 26 Del rocket 4.1 01:44:49 10° WNW 01:51:05 79° SSW 01:58:33 10° ESE
Cosmos 1238 Rocket 4.4 01:46:11 10° N 01:51:18 47° ENE 01:56:19 10° SSE
Cosmos 2297 Rocket 2.9 01:47:59 10° NW 01:53:05 35° WSW 01:56:44 17° SSW
CZ-2D R/B 2.9 01:51:03 10° NNE 01:56:08 46° E 02:01:07 10° S
MOZ.5/SAFIR/RUBIN 5/SL-8 3.8 01:56:34 15° S 02:00:21 61° WSW 02:04:59 10° NNW
BREEZE-M DEB (TANK) 1.9 01:59:47 10° W 02:02:12 37° SSW 02:04:20 10° SE
Meteor 2-6 Rocket 4.3 02:00:27 10° NNW 02:06:08 90° NNW 02:11:59 10° S
Cosmos 1758 Rocket 3.5 02:05:25 17° SSW 02:08:46 78° W 02:13:12 10° N
Cosmos 1602 Rocket 3.6 02:05:12 14° S 02:08:50 75° E 02:13:09 10° NNE
RESURS DK-1 3.9 02:06:24 10° WNW 02:09:08 18° WSW 02:10:16 16° SW
Cosmos 1980 Rocket 2.6 02:05:14 13° S 02:10:02 55° ESE 02:15:30 10° NE
Resurs 1-4 Rocket 2.4 02:05:10 10° NNE 02:10:28 66° ESE 02:15:34 11° S
H-2A R/B 4.3 02:09:35 11° WSW 02:10:41 12° W 02:12:17 10° WNW
Tiangong -0.1 02:10:34 15° S 02:11:05 15° SSE 02:13:04 10° SE
Nadezhda 1 Rocket 4.0 02:06:19 10° NNW 02:12:36 72° W 02:18:44 10° S
ATLAS 5 CENTAUR R/B 4.5 02:09:52 10° NNW 02:12:53 20° NNE 02:16:21 10° ENE
Cosmos 1626 Rocket 3.8 02:12:06 17° SSW 02:15:19 53° WNW 02:19:37 10° N
SeaSat 1 3.1 02:11:35 13° S 02:15:29 34° WSW 02:19:57 10° NW
Cosmos 1745 Rocket 4.1 02:12:26 12° S 02:18:23 85° W 02:24:48 10° N
Cosmos 1697 Rocket 2.9 02:14:32 15° SW 02:19:17 67° WNW 02:24:58 10° NNE
H-2A R/B 4.2 02:15:45 10° NE 02:19:24 20° E 02:23:00 10° SE
Cosmos 614 Rocket 3.9 02:17:37 10° NNW 02:22:39 70° WSW 02:27:39 10° SSE
FENGYUN 3A 3.7 02:17:37 10° NNE 02:23:01 74° WNW 02:27:59 12° SSW
BlueWalker 3 1.7 02:19:42 10° WNW 02:23:22 79° SSW 02:27:00 10° ESE
Cosmos 1346 Rocket 4.4 02:20:39 10° SSE 02:23:49 28° E 02:27:01 10° NNE
Cosmos 2227 Rocket 2.6 02:19:21 10° NW 02:24:42 43° WSW 02:30:00 10° S
MSX 4.2 02:20:46 10° N 02:26:18 52° WNW 02:31:23 12° SW
Cosmos-2242 4.3 02:23:28 10° NW 02:26:47 23° W 02:29:26 13° SW
ISS -3.7 02:26:56 10° WNW 02:30:12 52° SSW 02:33:29 10° SE
H-2A R/B 2.2 02:26:52 10° N 02:30:57 59° WNW 02:34:42 12° SSW
Okean 1 3.5 02:27:21 10° NNW 02:30:58 47° W 02:34:27 11° SSW
Cosmos 1709 Rocket 4.1 02:26:19 10° S 02:32:41 90° W 02:39:05 10° N
ATLAS 2AS CENTAUR R/B 2.7 02:30:39 10° NW 02:37:29 88° SW 02:44:11 10° SE
USA 290 2.2 02:35:01 10° NNW 02:38:20 84° WSW 02:41:37 10° SSE
Okean 1-7 Rocket 3.6 02:35:08 11° SSW 02:39:28 71° WNW 02:43:57 10° N
SAR-Lupe-3 4.0 02:36:36 10° SSE 02:39:32 89° W 02:42:29 10° NNW
NPP 4.4 02:37:34 10° N 02:42:35 40° WNW 02:47:35 10° SW
ALOS 2.3 02:39:13 10° NNE 02:43:49 83° ESE 02:48:24 10° SSW
Cosmos 1844 Rocket 4.2 02:40:49 10° NNW 02:46:10 41° NE 02:51:27 10° ESE
Cosmos 2221 2.9 02:43:33 10° NNW 02:47:39 45° W 02:51:42 10° SSW
Cosmos 1743 2.9 02:46:33 10° S 02:49:50 56° E 02:53:09 10° NNE
Cosmos 1125 Rocket 4.1 02:46:24 10° SW 02:51:30 47° WNW 02:56:36 10° NNE
Cosmos 192 4.4 02:46:51 10° SSW 02:51:47 76° WNW 02:56:44 10° NNE
Cosmos 2298 Rocket 4.1 02:48:53 10° SSW 02:54:12 84° ESE 02:59:33 10° NNE
Cosmos 2151 3.2 02:52:01 10° SSW 02:56:06 54° WNW 03:00:11 10° N
Cosmos 1953 Rocket 3.7 02:58:26 10° S 03:02:49 79° E 03:07:11 10° NNE
Cosmos 2322 Rocket 4.3 03:00:13 10° SSE 03:04:27 22° E 03:08:41 10° NE
Meteor 1-19 Rocket 4.3 03:01:04 10° NNW 03:06:25 60° W 03:11:50 10° S
Cosmos 2369 3.8 03:01:52 10° SSW 03:07:32 90° ESE 03:13:14 10° NNE
IDEFIX/ARIANE 42P 4.1 03:03:41 10° N 03:07:38 22° WNW 03:11:34 10° WSW
Cosmos 2333 Rocket 4.1 03:04:55 10° SSE 03:09:29 25° ESE 03:14:02 10° NE
Meteor 2-4 Rocket 4.2 03:04:36 10° N 03:10:03 64° ENE 03:15:21 10° SSE
CZ-3 R/B 4.4 02:55:17 10° WSW 03:24:49 34° SSW 03:34:49 10° SE
